Погода в Паустове

Россия / Владимирская область     56°07′02″N   42°10′15″E
темп.,
°C
ветер,
м/с
пор.,
м/с
влажн.,
%
обл.,
%
осадки,
мм/ч
давл.,
гПа
погр.,
м
24 мая, вт
вт2400:00+2св2386100 0.0 100370
03:00+1з2498100 0.1 1003189
06:00+1сз24100100 1.8 1003155
09:00+2сз2698100 2.8 1004305
12:00+4зсз2390100 0.6 1005656
15:00+5ссз347993 1.5 10071038
18:00+5с357273 0.3 1008957
21:000с228779 0.3 101015
25 мая, ср
ср2500:00−1сз238971 0.0 101148
03:00−1сз26945 0.0 1012114
06:00+1сз36886 0.0 1012263
09:00+7сз466687 0.0 10131269
12:00+7сз466963 0.1 10131258
15:00+11сз464890 0.1 10131895
18:00+10сз366190 0.0 10131156
21:00+4з228299 0.0 101310
26 мая, чт
чт2600:00+4юз2276100 0.0 101334
03:00+4юз3572100 0.0 101287
06:00+6зюз267287 0.0 1011214
09:00+10зюз456299 0.1 10111374
12:00+12зюз4659100 0.1 10101467
15:00+14юз145390 0.1 1009972
18:00+15юв365899 0.0 1006380
21:00+10ю41185100 0.0 1005260
27 мая, пт
пт2700:00+9ю2697100 0.1 1003171
03:00+9вюв2599100 4.7 1000171
06:00+9св2399100 3.3 997119
09:00+9сз3699100 5.9 998371
12:00+10зсз389383 0.3 1000499
15:00+12з379139 1.1 1001542
18:00+13з48875 1.1 1001900
21:00+9юз3696100 1.4 1003122
28 мая, сб
сб2800:00+8ююз3997100 0.0 1003181
03:00+7ю3109799 0.0 1003210
06:00+9ююв61697100 3.6 999880
09:00+12ююз81496100 5.9 9981131
12:00+12юз61185100 0.9 10011157
15:00+17юз6114923 1.6 10022548
18:00+15зюз511535 0.1 10041796
21:00+9юз31077100 0.1 1006253